Regional Weather Roundup
Issued by NWS San Angelo, TX

Home | Current Version | Previous Version | Text Only | Print | Product List | Glossary On
Versions: 1 2 3 4 5 6 7 8 9 10 11 12 13 14 15 16 17 18 19 20 21 22 23 24 25 26 27 28 29 30 31 32 33 34 35 36 37 38 39 40 41 42 43 44 45 46 47 48 49 50
000
ASUS44 KSJT 281302
RWRSJT
WEST CENTRAL TEXAS REGIONAL WEATHER ROUNDUP
NATIONAL WEATHER SERVICE SAN ANGELO TX
700 AM CST SUN DEC 28 2014

NOTE: "FAIR" INDICATES FEW OR NO CLOUDS BELOW 12,000 FEET WITH NO
SIGNIFICANT WEATHER AND/OR OBSTRUCTIONS TO VISIBILITY.

TXZ049-054-064>066-071>073-076>078-098-099-113-114-127-128-139-140-
154-155-168>170-281400
...LOCATIONS ACROSS WEST CENTRAL TEXAS...

CITY           SKY/WX    TMP DP  RH WIND       PRES   REMARKS
SAN ANGELO     MOCLDY    36  26  67 W3        30.26S
ABILENE        PTCLDY    30  27  88 SE6       30.26R WCI  24
DYESS AFB      PTCLDY    29  26  88 SW1       30.25R
JUNCTION       CLOUDY    33  29  85 W3        30.28R
SWEETWATER     NOT AVBL
BROWNWOOD      NOT AVBL
COLEMAN        NOT AVBL
SONORA         NOT AVBL
OZONA          NOT AVBL
BRADY          NOT AVBL
$$

TEXAS PANHANDLE/OKLAHOMA PANHANDLE

CITY           SKY/WX    TMP DP  RH WIND       PRES   REMARKS
AMARILLO       CLEAR     15  12  88 S8        30.09F WCI   4
BORGER         PTCLDY    22  13  68 S8        30.10F WCI  12
CANADIAN         N/A     12   9  88 CALM      30.16S
DALHART        PTCLDY    13   6  74 S7        30.04F WCI   3
DUMAS          SUNNY     13   9  85 SW8       30.05F WCI   2
GUYMON         NOT AVBL
HEREFORD       MOSUNNY   17  15  93 SW7       30.09S WCI   7
PAMPA          NOT AVBL
PERRYTON       NOT AVBL
$$

SOUTHERN PANHANDLE/SOUTH PLAINS/ROLLING PLAINS

CITY           SKY/WX    TMP DP  RH WIND       PRES   REMARKS
LUBBOCK        CLEAR     24  21  88 SW8       30.15R WCI  15
SNYDER         NOT AVBL
CHILDRESS      CLEAR     24  14  65 CALM      30.21S
SEMINOLE       NOT AVBL
$$

PERMIAN BASIN

CITY           SKY/WX    TMP DP  RH WIND       PRES   REMARKS
MIDLAND        CLEAR     29  25  85 SW7       30.21S WCI  22
ODESSA         CLEAR     28  24  85 W6        30.22R WCI  22
WINK           FOG       30  27  88 W3        30.22S VSB 1/4
$$

FAR WEST/SOUTHWEST MOUNTAINS/TRANS PECOS

CITY           SKY/WX    TMP DP  RH WIND       PRES   REMARKS
ALPINE         NOT AVBL
DRYDEN           N/A     39  32  76 SW3       30.26R
EL PASO        CLEAR     27  24  89 CALM      30.23R
FORT STOCKTON  CLEAR     31  31 100 SW9       30.23S WCI  23
GUADALUPE PASS NOT AVBL
MARFA          CLOUDY    32  30  93 W12       30.22S WCI  23
PECOS          NOT AVBL
$$

DALLAS/FORT WORTH METROPLEX

CITY           SKY/WX    TMP DP  RH WIND       PRES   REMARKS
DFW AIRPORT    CLOUDY    34  24  67 N9        30.25F WCI  27
FTW MEACHAM    CLOUDY    34  23  64 N9        30.26F WCI  27
DAL-EXECUTIVE  CLOUDY    37  23  56 N5        30.25F WCI  33
GRAND PRAIRIE  NOT AVBL
ADDISON        NOT AVBL
MESQUITE       CLOUDY    36  25  64 NW7       30.27  WCI  30
LANCASTER      CLOUDY    35  24  63 N6        30.28S WCI  30
$$

NORTH CENTRAL TEXAS

CITY           SKY/WX    TMP DP  RH WIND       PRES   REMARKS
SHRMAN/DENISON PTSUNNY   32  28  88 CALM      30.28S
GAINESVILLE    NOT AVBL
BRIDGEPORT     PTSUNNY   32  26  80 N3        30.29F
DENTON         CLOUDY    31  24  75 N6        30.27F WCI  25
WAXAHACHIE     CLOUDY    35  28  76 N6        30.27F WCI  30
GRANBURY       NOT AVBL
$$

WESTERN NORTH TEXAS

CITY           SKY/WX    TMP DP  RH WIND       PRES   REMARKS
WICHITA FALLS  MOCLDY    27  22  81 CALM      30.26S
VERNON         SUNNY     24  18  77 CALM      30.26S
BRECKENRIDGE   NOT AVBL
COMANCHE       NOT AVBL
$$

CENTRAL AND SOUTH CENTRAL TEXAS

CITY           SKY/WX    TMP DP  RH WIND       PRES   REMARKS
AUSTIN/BERGSTM LGT RAIN  35  31  85 N10       30.24R WCI  27
WACO           LGT RAIN  35  27  72 N8        30.26F WCI  29
HILLSBORO      NOT AVBL
TEMPLE         CLOUDY    36  25  64 N13       30.23F WCI  27
KILLEEN-GRAY   CLOUDY    34  28  80 N10       30.24S HAZE    WCI  26
FORT HOOD      CLOUDY    34  28  80 N10       30.24S HAZE    WCI  26
GEORGETOWN     LGT RAIN  36  30  80 N10G16    30.22S WCI  28
LAGO VISTA     MIX PCPN  34  31  90 N9G16     30.20F WCI  26
SAN MARCOS     CLOUDY    36  30  80 N14       30.24R WCI  27
NEW BRAUNFELS  LGT RAIN  36  32  85 N15       30.23R WCI  27
RANDOLPH AFB   DRIZZLE   36  32  88 N10       30.24R WCI  28
SAN ANTONIO    LGT RAIN  37  33  85 NW9       30.25R WCI  30
STINSON        LGT RAIN  37  33  85 N8        30.26R WCI  31
PLEASANTON     NOT AVBL
LA GRANGE      NOT AVBL
GIDDINGS       DRIZZLE   36  32  87 N8        30.26R WCI  29
$$

EAST TEXAS

CITY           SKY/WX    TMP DP  RH WIND       PRES   REMARKS
PARIS          CLOUDY    34  27  75 NW8       30.26R WCI  27
CLARKSVILLE    NOT AVBL
TYLER          CLOUDY    36  28  73 N8        30.23F WCI  30
LONGVIEW       LGT RAIN  37  33  85 N6        30.22F WCI  32
PALESTINE      DRIZZLE   36  32  88 NW6       30.26R WCI  31
NACOGDOCHES      N/A    N/A N/A N/A MISG        N/A
$$

TEXAS HILL COUNTRY AND EDWARDS PLATEAU

CITY           SKY/WX    TMP DP  RH WIND       PRES   REMARKS
LLANO          NOT AVBL
HORSESHOE BAY  LGT RAIN  35  31  85 NW7       30.26S WCI  29
KERRVILLE      MIX PCPN  32  30  92 N10       30.24R WCI  24
FREDERICKSBRG  NOT AVBL
ROCKSPRINGS    NOT AVBL
HONDO          LGT RAIN  36  32  85 N9        30.28R WCI  29
UVALDE         CLOUDY    35  34  95 NE5       30.28R WCI  31
DEL RIO        CLOUDY    41  31  67 NW10      30.29S WCI  35
$$

SOUTHEAST TEXAS

CITY           SKY/WX    TMP DP  RH WIND       PRES   REMARKS
COLLEGE STN    LGT RAIN  37  32  82 N13       30.21F WCI  29
CALDWELL       NOT AVBL
CROCKETT       NOT AVBL
BRENHAM        LGT RAIN  38  35  88 N10G16    30.21F WCI  31
HUNTSVILLE     LGT RAIN  36  35  96 NW10      30.22R WCI  28
CONROE         LGT RAIN  39  37  92 N10       30.21S WCI  32
HOUSTON BUSH   RAIN      41  39  93 NW10      30.20R WCI  35
HOUSTON HOBBY  LGT RAIN  43  41  93 N14       30.17R WCI  36
PERLAND        RAIN      44  41  89 N7        30.19R
WHARTON        RAIN      40  39  96 N16       30.19S WCI  31
$$

THE UPPER TEXAS COAST

CITY           SKY/WX    TMP DP  RH WIND       PRES   REMARKS
ORANGE         CLOUDY    48  47  97 N7        30.17S
PORT ARTHUR    CLOUDY    48  46  93 NW9G18    30.16R
GALVESTON      CLOUDY    47  46  97 N21       30.15R WCI  39
ANGLETON       LGT RAIN  43  42  97 N8        30.17R WCI  38
BAY CITY       RAIN      43  43 100 N16       30.17R WCI  35
$$

TEXAS COASTAL BEND, RIO GRANDE PLAINS DEEP SOUTH TEXAS

CITY           SKY/WX    TMP DP  RH WIND       PRES   REMARKS
VICTORIA       RAIN      40  38  93 NW13      30.21R WCI  32
BEEVILLE       RAIN      40  40  97 N9        30.23R WCI  35
ROCKPORT       RAIN      43  40  89 NW17      30.23R FOG     WCI  35
PORT ARANSAS   NOT AVBL
PORT LAVACA    RAIN      40  39  97 N13G20    30.20R WCI  33
CORPUS CHRISTI CLOUDY    44  41  89 N14       30.21R WCI  37
KINGSVILLE NAS LGT RAIN  45  44  97 N16       30.23R WCI  38
COTULLA        CLOUDY   N/A N/A N/A N12       30.27R
LAREDO         NOT AVBL
BROWNSVILLE    CLOUDY    49  46  90 NW16G25   30.18R
PORT ISABEL    CLOUDY    49  46  90 NW24G31   30.17R
HEBBRONVILLE   NOT AVBL
MCALLEN        LGT RAIN  48  44  86 N15       30.22R
WESLACO        NOT AVBL
FALFURRIAS     CLOUDY    45  42  90 N7        30.22R
EDINBURG       LGT RAIN  49  46  88 N13G18    30.21R
$$



USA.gov is the U.S. government's official web portal to all federal, state and local government web resources and services.